[[{"header":{"parameterUnit":"m.s-1","parameterCategory":1,"la1":30.2991,"la2":30.254,"lo1":-89.0895,"lo2":-89.0444,"dy":0.0017,"dx":0.0017,"nx":28,"ny":28,"refTime":"2025-08-08T09:00:00:Z","depth":0,"parameterNumber":2,"parameterNumberName":"U-component_of_WINDS"},"data":[0,0,0,0,0,0,0,0,0,0,0,0,0,0,0,0,0,0,0,0,0,0,0,0,0,0,0,0,0,0,0,0,0,0,0,0,0,0,0,0,0,0,0,0,0,0,0,0,0,0,0,0,0,0,0,0,0,0,-3.7497,-3.7497,0,-3.7442,-3.7442,-3.7441,-3.7228,-3.7223,-3.7218,-3.7213,-3.7162,-3.7165,-3.7168,0,0,0,0,0,0,0,0,0,0,0,0,0,-3.7423,-3.7425,-3.7498,-3.7497,-3.7496,-3.7442,-3.7442,-3.7441,-3.7229,-3.7223,-3.7217,-3.7211,-3.7161,-3.7165,-3.7168,0,0,0,0,0,0,0,0,0,0,0,0,0,-3.7421,-3.7426,-3.7498,-3.7384,-3.7373,-3.7443,-3.7442,-3.7441,-3.723,-3.7223,-3.7215,-3.7208,-3.716,-3.7164,-3.7169,-3.7346,0,0,-3.7184,-3.7186,0,0,0,0,0,0,0,0,-3.7421,-3.7424,-3.7401,-3.7392,-3.738,-3.7334,-3.7396,-3.7409,-3.7232,-3.7284,-3.7213,-3.7205,-3.7226,-3.7224,-3.723,-3.7343,-3.7341,-3.7184,-3.7187,-3.7189,-3.719,0,0,0,0,0,0,0,-3.7421,-3.7425,-3.7476,-3.7401,-3.7388,-3.7336,-3.7328,-3.7398,-3.7297,-3.7279,-3.7264,-3.726,-3.7218,-3.7226,-3.7228,-3.734,-3.7184,-3.7188,-3.7191,-3.7193,-3.7594,-3.7601,0,0,0,0,0,0,-3.7437,-3.7426,-3.7477,-3.7474,-3.7382,-3.7344,-3.7334,-3.7356,-3.7296,-3.7279,-3.7266,-3.725,-3.7222,-3.7222,-3.7225,-3.7425,-3.7189,-3.7193,-3.7196,-3.7586,-3.7595,-3.7604,0,0,0,0,0,0,-3.7436,-3.7444,-3.748,-3.7446,-3.7446,-3.7353,-3.7379,-3.7359,-3.7367,-3.7286,-3.7267,-3.7292,-3.7216,-3.7218,-3.7316,-3.7421,-3.7196,-3.72,-3.7577,-3.7589,-3.76,-3.783,0,0,0,0,0,0,-3.7435,-3.7445,-3.751,-3.7449,-3.7449,-3.7572,-3.7386,-3.7363,-3.7375,-3.7353,-3.7305,-3.729,-3.721,-3.731,-3.7321,-3.7423,-3.7204,-3.7567,-3.7582,-3.7596,-3.7813,-3.7848,-3.7879,0,0,0,0,0,-3.7433,-3.7579,-3.7515,-3.7522,-3.7529,-3.7578,-3.7578,-3.7482,-3.7384,-3.7449,-3.7397,-3.7292,-3.7409,-3.7322,-3.7333,-3.7438,-3.756,-3.7578,-3.7595,-3.7798,-3.7842,-3.7878,0,0,0,0,0,0,-3.7657,-3.7569,-3.7496,-3.7626,-3.7611,-3.7542,-3.7621,-3.7531,-3.7544,-3.7524,-3.7405,-3.7396,-3.7511,-3.7485,-3.739,-3.7605,-3.7466,-3.7487,-3.7618,-3.7658,-3.769,-3.7693,-3.7208,0,0,0,0,0,-3.7721,-3.7767,-3.7688,-3.7811,-3.7806,-3.7716,-3.7734,-3.7661,-3.7641,-3.7634,-3.7588,-3.7575,-3.7607,-3.7632,-3.7658,-3.7809,-3.7795,-3.7887,-3.792,-3.7947,-3.7965,-3.8042,-3.8081,-3.7661,-3.7661,-3.7661,0,0,-3.7855,-3.7812,-3.7849,-3.7855,-3.7834,-3.7885,-3.7712,-3.7774,-3.781,-3.7643,-3.7732,-3.7699,-3.7676,-3.7801,-3.7854,-3.7782,-3.8079,-3.7969,-3.7992,-3.7995,-3.8064,-3.8104,-3.8139,-3.7673,-3.7671,-3.7669,0,0,-3.8123,-3.8097,-3.8194,-3.8176,-3.8147,-3.8085,-3.8109,-3.8054,-3.8024,-3.8111,-3.7987,-3.803,-3.809,-3.8077,-3.8079,-3.8343,-3.8246,-3.8355,-3.8527,-3.8602,-3.8635,-3.8664,-3.8756,-3.8791,-3.8374,-3.8375,-3.8375,0,-3.8293,-3.8363,-3.8256,-3.8325,-3.833,-3.818,-3.8278,-3.8267,-3.825,-3.8257,-3.8178,-3.8248,-3.8222,-3.8341,-3.8405,-3.8413,-3.8436,-3.8359,-3.8639,-3.8667,-3.8692,-3.8778,-3.8814,-3.8388,-3.8387,-3.8385,-3.8384,0,-3.8572,-3.8623,-3.8705,-3.8688,-3.8704,-3.8788,-3.8694,-3.8724,-3.865,-3.8597,-3.8688,-3.8651,-3.8666,-3.869,-3.8619,-3.8799,-3.8755,-3.866,-3.8517,-3.8747,-3.8826,-3.8858,-3.8407,-3.8402,-3.8399,-3.8395,0,0,-3.8978,-3.89,-3.8932,-3.8921,-3.8878,-3.8916,-3.8993,-3.9006,-3.9032,-3.9026,-3.9087,-3.9141,-3.9051,-3.9054,-3.8981,-3.9048,-3.9257,-3.8943,-3.894,-3.9,-3.945,-3.9521,-3.9561,-3.9193,-3.9199,-3.9204,-3.9451,0,-3.9231,-3.9355,-3.9261,-3.9403,-3.9447,-3.9306,-3.9373,-3.9355,-3.9308,-3.9341,-3.929,-3.9329,-3.9209,-3.9209,-3.927,-3.9219,-3.9345,-3.92,-3.9249,-3.9252,-3.9256,-3.9602,-3.9677,-3.9912,-3.9482,-3.9487,-3.9491,0,-3.9542,-3.9546,-3.9691,-3.9636,-3.9652,-3.9713,-3.9716,-3.975,-3.9726,-3.9688,-3.9691,-3.96,-3.9672,-3.9535,-3.9633,-3.9537,-3.9552,-3.953,-3.9537,-3.9535,-3.9383,-3.9608,-3.9985,-4.002,-3.9539,-3.9535,-3.9532,0,-3.982,-3.9862,-3.9953,-3.995,-3.9889,-3.9935,-3.9913,-3.9881,-3.9895,-3.9899,-3.9906,-3.9921,-3.9928,-3.9942,-3.9858,-3.9766,-3.9967,-3.9823,-3.9936,-3.9939,-3.9983,-3.9981,-4.0365,-3.9998,-3.9998,-3.9997,-3.9996,0,-4.011,-4.0204,-4.0077,-4.0133,-4.0235,-4.0127,-4.0231,-4.0193,-4.0167,-4.0214,-4.0095,-4.0142,-4.0029,-4.0066,-4.0001,-4.0091,-4.0097,-4.0067,-4.0048,-4.0076,-4.008,-4.0082,-4.0063,-4.0006,-4.0004,-4.0002,-4.0001,0,-4.0436,-4.0355,-4.0445,-4.038,-4.0366,-4.0443,-4.0387,-4.0437,-4.0383,-4.0445,-4.0453,-4.0369,-4.0405,-4.0323,-4.0349,-4.0305,-4.0433,-4.039,-4.044,-4.0426,-4.0543,-4.0532,-4.094,-4.0988,-4.0594,-4.0598,-4.0601,0,-4.0625,-4.0693,-4.0635,-4.0656,-4.0639,-4.0677,-4.0689,-4.0587,-4.0605,-4.0583,-4.0636,-4.0662,-4.0676,-4.0742,-4.0684,-4.0703,-4.0657,-4.0799,-4.0659,-4.0685,-4.0656,-4.0652,-4.0657,-4.0827,-4.0832,-4.0836,-4.0839,0,-4.0968,-4.0924,-4.0945,-4.0953,-4.097,-4.0972,-4.0965,-4.0991,-4.0882,-4.0909,-4.0943,-4.0954,-4.0979,-4.1006,-4.1012,-4.099,-4.0897,-4.0884,-4.0911,-4.0938,-4.0963,-4.0948,-4.0516,-4.0874,-4.0871,-4.0868,-4.0866,-4.0865,-4.1229,-4.1282,-4.1248,-4.1275,-4.1259,-4.1256,-4.1299,-4.1249,-4.1275,-4.1285,-4.1225,-4.1273,-4.1247,-4.1245,-4.1233,-4.1269,-4.1205,-4.1245,-4.1254,-4.1265,-4.1283,-4.096,-4.1271,-4.127,-4.1269,-4.1268,-4.1267,0,-4.1562,-4.1534,-4.156,-4.1553,-4.1575,-4.1484,-4.1472,-4.1497,-4.1539,-4.1523,-4.1539,-4.1579,-4.1605,-4.155,-4.1567,-4.1607,-4.1565,-4.1615,-4.1609,-4.1606,-4.134,-4.1314,-4.1649,-4.1649,-4.1649,-4.1648,-4.1648,-4.1648,-4.1738,-4.1822,-4.1775,-4.1851,-4.1822,-4.1865,-4.1866,-4.1862,-4.1848,-4.1897,-4.1916,-4.188,-4.1848,-4.1862,-4.1882,-4.1865,-4.1876,-4.1941,-4.1909,-4.1662,-4.1624,-4.1589,-4.1563,-4.1945,-4.1945,-4.217,-4.2173,-4.2174]},{"header":{"parameterUnit":"m.s-1","parameterCategory":1,"la1":30.2991,"la2":30.254,"lo1":-89.0895,"lo2":-89.0444,"dy":0.0017,"dx":0.0017,"nx":28,"ny":28,"refTime":"2025-08-08T09:00:00:Z","depth":0,"parameterNumber":3,"parameterNumberName":"V-component_of_WINDS"},"data":[0,0,0,0,0,0,0,0,0,0,0,0,0,0,0,0,0,0,0,0,0,0,0,0,0,0,0,0,0,0,0,0,0,0,0,0,0,0,0,0,0,0,0,0,0,0,0,0,0,0,0,0,0,0,0,0,0,0,-0.622,-0.6221,0,-0.6307,-0.6308,-0.6309,-0.6398,-0.6399,-0.6401,-0.6402,-0.6489,-0.649,-0.6491,0,0,0,0,0,0,0,0,0,0,0,0,0,-0.613,-0.6131,-0.622,-0.6221,-0.6222,-0.6307,-0.6308,-0.6309,-0.6398,-0.64,-0.6401,-0.6402,-0.6489,-0.649,-0.6491,0,0,0,0,0,0,0,0,0,0,0,0,0,-0.6188,-0.6131,-0.622,-0.6277,-0.6283,-0.6306,-0.6308,-0.6309,-0.6398,-0.64,-0.6401,-0.6403,-0.6488,-0.649,-0.6492,-0.6465,0,0,-0.6497,-0.6498,0,0,0,0,0,0,0,0,-0.6184,-0.6191,-0.6268,-0.6273,-0.628,-0.6344,-0.6308,-0.6362,-0.6397,-0.6354,-0.6402,-0.6404,-0.6439,-0.6445,-0.6457,-0.6469,-0.6473,-0.6497,-0.6498,-0.6499,-0.6499,0,0,0,0,0,0,0,-0.618,-0.6188,-0.6255,-0.6269,-0.6276,-0.6297,-0.6308,-0.6319,-0.6385,-0.6358,-0.6365,-0.6374,-0.6443,-0.6455,-0.646,-0.6475,-0.6497,-0.6499,-0.65,-0.65,-0.6468,-0.6466,0,0,0,0,0,0,-0.6168,-0.6184,-0.6252,-0.6257,-0.6236,-0.6298,-0.6309,-0.6321,-0.6385,-0.6397,-0.6372,-0.6378,-0.6451,-0.6458,-0.6463,-0.6436,-0.6499,-0.6501,-0.6502,-0.647,-0.6467,-0.6465,0,0,0,0,0,0,-0.6166,-0.6173,-0.6248,-0.6222,-0.6234,-0.6297,-0.631,-0.6322,-0.6335,-0.6396,-0.6408,-0.6373,-0.6453,-0.6461,-0.6464,-0.644,-0.6501,-0.6503,-0.6472,-0.6469,-0.6466,-0.6381,0,0,0,0,0,0,-0.6163,-0.6172,-0.6163,-0.6222,-0.6235,-0.6248,-0.6309,-0.6322,-0.6338,-0.6346,-0.64,-0.641,-0.6455,-0.6461,-0.6466,-0.6444,-0.6504,-0.6474,-0.6471,-0.6467,-0.6386,-0.6375,-0.6366,0,0,0,0,0,-0.6159,-0.6136,-0.6162,-0.617,-0.6225,-0.6247,-0.6254,-0.6306,-0.6335,-0.6327,-0.6366,-0.6409,-0.6442,-0.646,-0.6467,-0.6445,-0.6476,-0.6472,-0.6468,-0.6391,-0.6377,-0.6366,0,0,0,0,0,0,-0.6073,-0.6145,-0.6175,-0.617,-0.6201,-0.6262,-0.6253,-0.6291,-0.6315,-0.6321,-0.6384,-0.6396,-0.6391,-0.6419,-0.6438,-0.6422,-0.6465,-0.6462,-0.6404,-0.6392,-0.6383,-0.6376,-0.6506,0,0,0,0,0,-0.6053,-0.6065,-0.6127,-0.6116,-0.6131,-0.6188,-0.62,-0.6237,-0.6272,-0.6286,-0.6326,-0.6357,-0.6375,-0.6385,-0.6405,-0.639,-0.6403,-0.6378,-0.6368,-0.636,-0.6356,-0.6349,-0.6338,-0.6451,-0.6451,-0.6451,0,0,-0.6013,-0.6054,-0.6057,-0.61,-0.6129,-0.6139,-0.6199,-0.6208,-0.6215,-0.6287,-0.6293,-0.6322,-0.6362,-0.6355,-0.6355,-0.6378,-0.6327,-0.6354,-0.6347,-0.6348,-0.6343,-0.6332,-0.6323,-0.6448,-0.6449,-0.6449,0,0,-0.5945,-0.5977,-0.5971,-0.5999,-0.6042,-0.608,-0.6078,-0.6132,-0.6155,-0.6161,-0.6215,-0.6224,-0.6253,-0.6279,-0.6296,-0.6235,-0.6275,-0.6239,-0.6187,-0.618,-0.6171,-0.6163,-0.614,-0.6131,-0.6235,-0.6235,-0.6235,0,-0.5889,-0.5907,-0.5963,-0.5968,-0.5985,-0.605,-0.6044,-0.6067,-0.6114,-0.6123,-0.6149,-0.6186,-0.6217,-0.6217,-0.6202,-0.6214,-0.6213,-0.6234,-0.6167,-0.616,-0.6154,-0.6133,-0.6124,-0.6231,-0.6231,-0.6232,-0.6232,0,-0.5836,-0.5847,-0.5837,-0.5881,-0.5896,-0.5895,-0.595,-0.5959,-0.5994,-0.6029,-0.6033,-0.6073,-0.6101,-0.6104,-0.6139,-0.6108,-0.6121,-0.6156,-0.6201,-0.6138,-0.6119,-0.6111,-0.6224,-0.6226,-0.6227,-0.6228,0,0,-0.5717,-0.579,-0.5786,-0.5805,-0.5856,-0.5866,-0.5867,-0.5895,-0.59,-0.593,-0.5931,-0.5954,-0.5986,-0.6005,-0.6043,-0.6036,-0.5983,-0.6072,-0.6073,-0.6053,-0.595,-0.5923,-0.5913,-0.601,-0.6008,-0.6007,-0.5946,0,-0.5657,-0.5664,-0.5714,-0.5706,-0.5716,-0.5777,-0.5778,-0.5809,-0.5841,-0.5854,-0.5889,-0.5904,-0.5946,-0.5957,-0.5953,-0.599,-0.5963,-0.5995,-0.6011,-0.6011,-0.5999,-0.5903,-0.5875,-0.5816,-0.5939,-0.5938,-0.5937,0,-0.5589,-0.5614,-0.5606,-0.5656,-0.5662,-0.5662,-0.569,-0.5702,-0.5737,-0.5761,-0.5781,-0.5824,-0.5827,-0.5869,-0.5874,-0.5894,-0.5903,-0.5922,-0.5921,-0.5925,-0.597,-0.5903,-0.5798,-0.5789,-0.5927,-0.5927,-0.5928,0,-0.5502,-0.5533,-0.5533,-0.5548,-0.5606,-0.5604,-0.5628,-0.5665,-0.5678,-0.5702,-0.5711,-0.5735,-0.5748,-0.5765,-0.5812,-0.5839,-0.5811,-0.5857,-0.583,-0.5829,-0.5822,-0.5821,-0.5716,-0.5828,-0.5828,-0.5828,-0.5828,0,-0.5429,-0.5422,-0.5494,-0.5494,-0.5487,-0.5543,-0.5535,-0.5565,-0.5597,-0.5602,-0.5656,-0.566,-0.5723,-0.5733,-0.577,-0.5768,-0.5774,-0.5792,-0.5802,-0.5787,-0.5785,-0.5794,-0.5799,-0.5826,-0.5826,-0.5827,-0.5827,0,-0.5331,-0.5379,-0.5382,-0.5436,-0.5449,-0.5442,-0.5488,-0.5489,-0.5524,-0.553,-0.5535,-0.559,-0.5605,-0.5654,-0.5681,-0.5706,-0.5691,-0.5711,-0.5679,-0.5686,-0.5656,-0.5657,-0.5552,-0.5541,-0.566,-0.5659,-0.5658,0,-0.5282,-0.5278,-0.5331,-0.5338,-0.536,-0.5372,-0.5385,-0.5439,-0.545,-0.5489,-0.5485,-0.5504,-0.5523,-0.5544,-0.5585,-0.5606,-0.5626,-0.5587,-0.5629,-0.5614,-0.5624,-0.5624,-0.5623,-0.5578,-0.5577,-0.5575,-0.5574,0,-0.5189,-0.5212,-0.5229,-0.5253,-0.5267,-0.5289,-0.5314,-0.5316,-0.5377,-0.5387,-0.5403,-0.5417,-0.5444,-0.5462,-0.5489,-0.5513,-0.5553,-0.5561,-0.5555,-0.554,-0.5522,-0.553,-0.5654,-0.5563,-0.5564,-0.5565,-0.5565,-0.5566,-0.5113,-0.5112,-0.5148,-0.5165,-0.5189,-0.521,-0.5214,-0.5248,-0.5263,-0.5289,-0.532,-0.5332,-0.5366,-0.5406,-0.5427,-0.5436,-0.5458,-0.5451,-0.5449,-0.5446,-0.5438,-0.552,-0.5441,-0.5442,-0.5442,-0.5443,-0.5443,0,-0.5022,-0.5048,-0.5063,-0.5095,-0.5107,-0.5144,-0.5173,-0.5181,-0.519,-0.5219,-0.5235,-0.5252,-0.527,-0.5312,-0.5333,-0.5332,-0.5351,-0.5336,-0.5336,-0.534,-0.5418,-0.542,-0.532,-0.532,-0.532,-0.532,-0.532,-0.532,-0.4976,-0.4975,-0.5003,-0.5013,-0.504,-0.5052,-0.5065,-0.5084,-0.5107,-0.5124,-0.5138,-0.5166,-0.5199,-0.5222,-0.5239,-0.5251,-0.5256,-0.5234,-0.5252,-0.5324,-0.5335,-0.5346,-0.5349,-0.5235,-0.5235,-0.5174,-0.5173,-0.5173]}]]